FDX44 MBPV-KFLL

Flight info

Callsign FDX44
Flight time 1h 23m
Altitude 32000
Route ZQA OLAHS3
Aircraft B763/H-SDE3FGHIM3RWXY/LB1

Departure

Time 2026-04-26 21:16
Airport Providenciales International Airport (MBPV)

Arrival

Time 2026-04-26 22:39
Airport Fort Lauderdale Hollywood International Airport (KFLL)
Time Latitude Longitude Altitude Speed Heading
2026-04-26 21:15 22.04404 -72.27771 11296 ft 330 kts 297°
2026-04-26 21:16 22.05564 -72.30006 11665 ft 347 kts 297°
2026-04-26 21:16 22.06771 -72.32320 12036 ft 363 kts 298°
2026-04-26 21:16 22.08015 -72.34695 12725 ft 367 kts 298°
2026-04-26 21:16 22.09272 -72.37094 13504 ft 369 kts 298°
2026-04-26 21:17 22.10540 -72.39513 14175 ft 374 kts 297°
2026-04-26 21:17 22.11811 -72.41939 14903 ft 375 kts 297°
2026-04-26 21:17 22.13111 -72.44419 15525 ft 379 kts 298°
2026-04-26 21:17 22.14530 -72.46796 16194 ft 382 kts 301°
2026-04-26 21:18 22.16000 -72.49210 16789 ft 385 kts 300°
2026-04-26 21:18 22.17466 -72.51614 17456 ft 387 kts 300°
2026-04-26 21:18 22.18947 -72.54057 18073 ft 390 kts 300°
2026-04-26 21:18 22.20444 -72.56525 18652 ft 394 kts 300°
2026-04-26 21:19 22.21942 -72.58998 19210 ft 398 kts 300°
2026-04-26 21:19 22.23462 -72.61506 19860 ft 400 kts 300°
2026-04-26 21:19 22.24998 -72.64044 20366 ft 404 kts 300°
2026-04-26 21:19 22.26535 -72.66585 20899 ft 408 kts 300°
2026-04-26 21:20 22.28103 -72.69177 21433 ft 410 kts 300°
2026-04-26 21:20 22.29654 -72.71744 21844 ft 415 kts 300°
2026-04-26 21:20 22.31249 -72.74382 22346 ft 417 kts 300°
2026-04-26 21:20 22.32835 -72.77009 22801 ft 420 kts 300°
2026-04-26 21:21 22.34442 -72.79669 23294 ft 422 kts 300°
2026-04-26 21:21 22.36033 -72.82307 23824 ft 423 kts 300°
2026-04-26 21:21 22.37652 -72.84991 24315 ft 425 kts 300°
2026-04-26 21:21 22.39282 -72.87696 24811 ft 426 kts 300°
2026-04-26 21:22 22.40889 -72.90364 25278 ft 428 kts 300°
2026-04-26 21:22 22.42519 -72.93071 25749 ft 429 kts 300°
2026-04-26 21:22 22.44133 -72.95754 26177 ft 431 kts 300°
2026-04-26 21:23 22.47422 -73.01223 27028 ft 433 kts 300°
2026-04-26 21:23 22.49069 -73.03964 27360 ft 437 kts 300°
2026-04-26 21:23 22.50723 -73.06718 27780 ft 437 kts 300°
2026-04-26 21:23 22.52364 -73.09452 28148 ft 439 kts 300°
2026-04-26 21:24 22.54033 -73.12236 28481 ft 441 kts 299°
2026-04-26 21:24 22.55702 -73.15019 28856 ft 441 kts 299°
2026-04-26 21:24 22.57367 -73.17798 29201 ft 442 kts 299°
2026-04-26 21:24 22.59049 -73.20606 29460 ft 445 kts 299°
2026-04-26 21:25 22.60719 -73.23393 29866 ft 443 kts 299°
2026-04-26 21:25 22.62394 -73.26193 30317 ft 440 kts 299°
2026-04-26 21:25 22.64052 -73.28964 30753 ft 437 kts 298°
2026-04-26 21:25 22.65670 -73.31670 31268 ft 432 kts 298°
2026-04-26 21:26 22.67294 -73.34388 31729 ft 428 kts 298°
2026-04-26 21:26 22.68916 -73.37107 31923 ft 427 kts 298°
2026-04-26 21:26 22.72122 -73.42483 31921 ft 424 kts 298°
2026-04-26 21:27 22.75312 -73.47843 31920 ft 426 kts 298°
2026-04-26 21:27 22.78527 -73.53242 31918 ft 424 kts 298°
2026-04-26 21:28 22.81721 -73.58614 31925 ft 426 kts 298°
2026-04-26 21:28 22.84919 -73.63998 31914 ft 425 kts 298°
2026-04-26 21:29 22.88111 -73.69379 31935 ft 425 kts 298°
2026-04-26 21:29 22.91290 -73.74741 31936 ft 425 kts 298°
2026-04-26 21:30 22.94493 -73.80150 31929 ft 424 kts 298°
2026-04-26 21:30 22.97665 -73.85511 31931 ft 425 kts 298°
2026-04-26 21:31 23.00855 -73.90909 31936 ft 425 kts 298°
2026-04-26 21:31 23.04038 -73.96303 31932 ft 427 kts 298°
2026-04-26 21:32 23.07238 -74.01730 31930 ft 426 kts 298°
2026-04-26 21:32 23.10429 -74.07146 31928 ft 426 kts 298°
2026-04-26 21:33 23.13626 -74.12579 31932 ft 427 kts 298°
2026-04-26 21:33 23.16813 -74.18001 31927 ft 427 kts 298°
2026-04-26 21:34 23.20008 -74.23441 31935 ft 427 kts 298°
2026-04-26 21:34 23.23199 -74.28882 31938 ft 429 kts 298°
2026-04-26 21:35 23.26403 -74.34348 31941 ft 428 kts 298°
2026-04-26 21:35 23.29593 -74.39799 31938 ft 428 kts 299°
2026-04-26 21:36 23.32270 -74.44376 31930 ft 427 kts 299°
2026-04-26 21:36 23.35994 -74.50752 31932 ft 430 kts 299°
2026-04-26 21:37 23.39181 -74.56215 31934 ft 428 kts 299°
2026-04-26 21:37 23.42373 -74.61690 31928 ft 429 kts 299°
2026-04-26 21:38 23.45576 -74.67195 31949 ft 430 kts 299°
2026-04-26 21:38 23.48773 -74.72691 31959 ft 430 kts 299°
2026-04-26 21:39 23.51979 -74.78209 31951 ft 430 kts 299°
2026-04-26 21:39 23.55175 -74.83718 31954 ft 430 kts 300°
2026-04-26 21:40 23.58357 -74.89208 31950 ft 430 kts 300°
2026-04-26 21:40 23.61552 -74.94723 31946 ft 431 kts 300°
2026-04-26 21:41 23.64741 -75.00238 31947 ft 432 kts 300°
2026-04-26 21:41 23.67955 -75.05800 31940 ft 431 kts 300°
2026-04-26 21:42 23.71143 -75.11325 31944 ft 431 kts 300°
2026-04-26 21:42 23.74326 -75.16847 31948 ft 432 kts 300°
2026-04-26 21:43 23.77532 -75.22412 31941 ft 432 kts 301°
2026-04-26 21:43 23.80708 -75.27936 31943 ft 432 kts 301°
2026-04-26 21:44 23.83916 -75.33518 31938 ft 432 kts 301°
2026-04-26 21:44 23.87100 -75.39067 31940 ft 432 kts 301°
2026-04-26 21:45 23.90288 -75.44629 31937 ft 434 kts 301°
2026-04-26 21:45 23.93478 -75.50198 31940 ft 432 kts 301°
2026-04-26 21:46 23.96658 -75.55758 31939 ft 433 kts 302°
2026-04-26 21:46 23.99856 -75.61356 31935 ft 433 kts 302°
2026-04-26 21:47 24.03054 -75.66959 31947 ft 434 kts 301°
2026-04-26 21:47 24.06240 -75.72548 31946 ft 433 kts 302°
2026-04-26 21:48 24.09418 -75.78129 31944 ft 432 kts 302°
2026-04-26 21:48 24.12592 -75.83709 31948 ft 433 kts 302°
2026-04-26 21:49 24.15790 -75.89339 31943 ft 434 kts 302°
2026-04-26 21:49 24.18978 -75.94956 31934 ft 435 kts 302°
2026-04-26 21:50 24.21606 -75.99593 31929 ft 432 kts 302°
2026-04-26 21:50 24.25302 -76.06120 31933 ft 434 kts 302°
2026-04-26 21:51 24.28482 -76.11743 31935 ft 435 kts 302°
2026-04-26 21:51 24.31657 -76.17364 31939 ft 433 kts 302°
2026-04-26 21:52 24.34818 -76.22965 31936 ft 435 kts 302°
2026-04-26 21:52 24.38024 -76.28656 31937 ft 435 kts 302°
2026-04-26 21:53 24.41219 -76.34332 31943 ft 435 kts 302°
2026-04-26 21:53 24.44388 -76.39967 31945 ft 435 kts 302°
2026-04-26 21:54 24.47587 -76.45664 31942 ft 437 kts 302°
2026-04-26 21:54 24.50773 -76.51344 31942 ft 436 kts 302°
2026-04-26 21:55 24.53934 -76.56984 31941 ft 435 kts 302°
2026-04-26 21:55 24.57109 -76.62659 31940 ft 435 kts 302°
2026-04-26 21:56 24.60294 -76.68358 31950 ft 435 kts 302°
2026-04-26 21:56 24.63480 -76.74063 31949 ft 436 kts 302°
2026-04-26 21:57 24.66641 -76.79733 31948 ft 434 kts 302°
2026-04-26 21:57 24.69806 -76.85416 31946 ft 436 kts 302°
2026-04-26 21:58 24.72983 -76.91122 31944 ft 435 kts 302°
2026-04-26 21:58 24.76149 -76.96821 31945 ft 435 kts 302°
2026-04-26 21:59 24.79291 -77.02484 31948 ft 435 kts 302°
2026-04-26 21:59 24.82447 -77.08175 31942 ft 434 kts 302°
2026-04-26 22:00 24.85588 -77.13847 31943 ft 435 kts 302°
2026-04-26 22:00 24.88736 -77.19541 31945 ft 434 kts 302°
2026-04-26 22:01 24.91890 -77.25251 31948 ft 437 kts 302°
2026-04-26 22:01 24.95029 -77.30942 31949 ft 435 kts 302°
2026-04-26 22:02 24.98193 -77.36684 31954 ft 438 kts 302°
2026-04-26 22:02 25.01357 -77.42432 31949 ft 438 kts 302°
2026-04-26 22:03 25.03944 -77.48492 31952 ft 441 kts 294°
2026-04-26 22:03 25.06317 -77.54712 31952 ft 441 kts 293°
2026-04-26 22:04 25.08674 -77.60967 31950 ft 440 kts 293°
2026-04-26 22:04 25.11020 -77.67225 31959 ft 442 kts 293°
2026-04-26 22:05 25.13371 -77.73517 31955 ft 443 kts 293°
2026-04-26 22:05 25.15711 -77.79794 31949 ft 443 kts 292°
2026-04-26 22:06 25.18050 -77.86079 31950 ft 443 kts 292°
2026-04-26 22:06 25.19217 -77.89219 31769 ft 447 kts 292°
2026-04-26 22:06 25.20392 -77.92384 31586 ft 437 kts 292°
2026-04-26 22:07 25.21517 -77.95421 31107 ft 429 kts 293°
2026-04-26 22:07 25.22639 -77.98447 30573 ft 425 kts 293°
2026-04-26 22:07 25.23763 -78.01482 30076 ft 429 kts 294°
2026-04-26 22:07 25.24909 -78.04575 29585 ft 436 kts 294°
2026-04-26 22:08 25.26062 -78.07689 29100 ft 441 kts 294°
2026-04-26 22:08 25.27210 -78.10794 28667 ft 438 kts 294°
2026-04-26 22:08 25.28359 -78.13907 28251 ft 431 kts 294°
2026-04-26 22:08 25.29482 -78.16948 27664 ft 427 kts 293°
2026-04-26 22:09 25.30602 -78.19901 27440 ft 415 kts 295°
2026-04-26 22:09 25.31788 -78.22833 27018 ft 423 kts 295°
2026-04-26 22:09 25.32996 -78.25848 26537 ft 426 kts 295°
2026-04-26 22:09 25.34194 -78.28833 26013 ft 423 kts 295°
2026-04-26 22:10 25.35372 -78.31776 25537 ft 415 kts 295°
2026-04-26 22:10 25.36524 -78.34657 25148 ft 406 kts 295°
2026-04-26 22:10 25.37641 -78.37452 24859 ft 400 kts 295°
2026-04-26 22:10 25.38777 -78.40295 24576 ft 403 kts 295°
2026-04-26 22:11 25.39916 -78.43148 24028 ft 411 kts 295°
2026-04-26 22:11 25.41040 -78.45970 23930 ft 396 kts 294°
2026-04-26 22:11 25.42108 -78.48747 23536 ft 391 kts 294°
2026-04-26 22:11 25.43168 -78.51502 22960 ft 389 kts 294°
2026-04-26 22:12 25.44221 -78.54244 22429 ft 384 kts 294°
2026-04-26 22:12 25.45262 -78.56956 21957 ft 380 kts 294°
2026-04-26 22:12 25.46283 -78.59618 21472 ft 378 kts 294°
2026-04-26 22:12 25.47311 -78.62301 20999 ft 375 kts 294°
2026-04-26 22:13 25.48321 -78.64935 20548 ft 372 kts 294°
2026-04-26 22:13 25.49330 -78.67570 20121 ft 368 kts 294°
2026-04-26 22:13 25.50326 -78.70174 19750 ft 363 kts 294°
2026-04-26 22:13 25.51308 -78.72742 19420 ft 359 kts 294°
2026-04-26 22:14 25.52275 -78.75272 19122 ft 356 kts 294°
2026-04-26 22:14 25.53234 -78.77782 18700 ft 356 kts 294°
2026-04-26 22:14 25.54192 -78.80290 18247 ft 354 kts 294°
2026-04-26 22:14 25.55150 -78.82800 17789 ft 353 kts 294°
2026-04-26 22:15 25.56098 -78.85285 17334 ft 351 kts 294°
2026-04-26 22:15 25.57037 -78.87749 16898 ft 349 kts 294°
2026-04-26 22:15 25.57987 -78.90243 16447 ft 348 kts 294°
2026-04-26 22:15 25.58915 -78.92680 15984 ft 347 kts 294°
2026-04-26 22:16 25.59853 -78.95145 15723 ft 338 kts 294°
2026-04-26 22:16 25.60755 -78.97508 15730 ft 337 kts 294°
2026-04-26 22:16 25.61690 -78.99975 15343 ft 352 kts 293°
2026-04-26 22:16 25.62606 -79.02406 15351 ft 335 kts 293°
2026-04-26 22:17 25.63492 -79.04761 15107 ft 329 kts 293°
2026-04-26 22:17 25.64367 -79.07082 14722 ft 326 kts 293°
2026-04-26 22:17 25.65233 -79.09387 14367 ft 322 kts 294°
2026-04-26 22:17 25.66092 -79.11671 13964 ft 321 kts 294°
2026-04-26 22:18 25.66942 -79.13933 13544 ft 320 kts 294°
2026-04-26 22:18 25.67790 -79.16190 13172 ft 317 kts 293°
2026-04-26 22:18 25.68631 -79.18433 12823 ft 314 kts 294°
2026-04-26 22:18 25.69469 -79.20666 12351 ft 315 kts 293°
2026-04-26 22:19 25.70305 -79.22897 11996 ft 311 kts 293°
2026-04-26 22:19 25.71129 -79.25096 11626 ft 309 kts 293°
2026-04-26 22:19 25.71950 -79.27287 11219 ft 308 kts 294°
2026-04-26 22:19 25.72765 -79.29467 10807 ft 307 kts 293°
2026-04-26 22:20 25.73566 -79.31641 10465 ft 303 kts 293°
2026-04-26 22:20 25.74102 -79.33102 10251 ft 300 kts 293°
2026-04-26 22:20 25.75114 -79.35858 10212 ft 281 kts 293°
2026-04-26 22:20 25.75833 -79.37820 10154 ft 269 kts 293°
2026-04-26 22:21 25.76535 -79.39735 9851 ft 268 kts 293°
2026-04-26 22:21 25.77236 -79.41646 9544 ft 267 kts 293°
2026-04-26 22:21 25.77934 -79.43551 9168 ft 269 kts 293°
2026-04-26 22:21 25.78630 -79.45451 8921 ft 265 kts 293°
2026-04-26 22:22 25.79326 -79.47350 8613 ft 263 kts 293°
2026-04-26 22:22 25.80017 -79.49239 8286 ft 263 kts 292°
2026-04-26 22:22 25.80701 -79.51109 7925 ft 265 kts 292°
2026-04-26 22:22 25.81396 -79.53011 7571 ft 265 kts 292°
2026-04-26 22:23 25.82089 -79.54907 7313 ft 262 kts 292°
2026-04-26 22:23 25.82767 -79.56764 7025 ft 262 kts 292°
2026-04-26 22:23 25.83442 -79.58614 6798 ft 258 kts 292°
2026-04-26 22:23 25.84124 -79.60468 6597 ft 257 kts 293°
2026-04-26 22:24 25.84820 -79.62305 6297 ft 259 kts 293°
2026-04-26 22:24 25.85509 -79.64130 6029 ft 257 kts 294°
2026-04-26 22:24 25.86262 -79.65921 5979 ft 249 kts 296°
2026-04-26 22:24 25.87019 -79.67676 6007 ft 253 kts 295°
2026-04-26 22:25 25.87787 -79.69465 6007 ft 259 kts 295°
2026-04-26 22:25 25.88554 -79.71251 5991 ft 258 kts 295°
2026-04-26 22:25 25.89329 -79.73056 5990 ft 256 kts 295°
2026-04-26 22:25 25.90087 -79.74829 5999 ft 256 kts 295°
2026-04-26 22:26 25.90855 -79.76630 5998 ft 256 kts 295°
2026-04-26 22:26 25.91617 -79.78416 5995 ft 254 kts 295°
2026-04-26 22:26 25.92374 -79.80194 5996 ft 255 kts 295°
2026-04-26 22:26 25.93133 -79.81975 5998 ft 256 kts 295°
2026-04-26 22:27 25.93898 -79.83772 5994 ft 255 kts 295°
2026-04-26 22:27 25.94647 -79.85532 5983 ft 254 kts 295°
2026-04-26 22:27 25.95401 -79.87303 5984 ft 254 kts 295°
2026-04-26 22:27 25.96166 -79.89104 5987 ft 255 kts 295°
2026-04-26 22:28 25.96925 -79.90887 5982 ft 254 kts 295°
2026-04-26 22:28 25.97672 -79.92644 5983 ft 252 kts 295°
2026-04-26 22:28 25.98423 -79.94409 5979 ft 253 kts 296°
2026-04-26 22:28 25.99447 -79.96018 6005 ft 255 kts 311°
2026-04-26 22:29 26.00654 -79.97507 5992 ft 257 kts 310°
2026-04-26 22:29 26.01835 -79.98987 5973 ft 254 kts 311°
2026-04-26 22:29 26.02993 -80.00427 5978 ft 252 kts 311°
2026-04-26 22:29 26.04173 -80.01891 5979 ft 253 kts 311°
2026-04-26 22:30 26.05347 -80.03343 5974 ft 253 kts 311°
2026-04-26 22:30 26.06457 -80.04717 5978 ft 254 kts 311°
2026-04-26 22:30 26.07640 -80.06180 5983 ft 254 kts 311°
2026-04-26 22:30 26.08815 -80.07634 5936 ft 251 kts 311°
2026-04-26 22:31 26.09995 -80.09094 5609 ft 252 kts 311°
2026-04-26 22:31 26.11163 -80.10538 5277 ft 252 kts 311°
2026-04-26 22:31 26.12330 -80.11983 4959 ft 252 kts 311°
2026-04-26 22:31 26.13514 -80.13449 4628 ft 252 kts 311°
2026-04-26 22:32 26.14545 -80.14969 4497 ft 242 kts 293°
2026-04-26 22:32 26.14867 -80.16750 4443 ft 230 kts 273°
2026-04-26 22:32 26.14924 -80.18481 4270 ft 223 kts 273°
2026-04-26 22:32 26.14978 -80.20227 3837 ft 228 kts 272°
2026-04-26 22:33 26.15011 -80.21988 3549 ft 225 kts 271°
2026-04-26 22:33 26.15037 -80.25471 2970 ft 220 kts 271°
2026-04-26 22:33 26.15048 -80.27135 2959 ft 206 kts 271°
2026-04-26 22:34 26.15059 -80.28672 2994 ft 196 kts 271°
2026-04-26 22:34 26.15070 -80.30228 2991 ft 203 kts 270°
2026-04-26 22:34 26.14967 -80.31804 2963 ft 205 kts 252°
2026-04-26 22:34 26.14182 -80.33014 2956 ft 188 kts 214°
2026-04-26 22:35 26.13000 -80.33369 2974 ft 167 kts 185°
2026-04-26 22:35 26.11852 -80.33366 2977 ft 159 kts 183°
2026-04-26 22:35 26.10677 -80.33356 2747 ft 179 kts 182°
2026-04-26 22:35 26.09426 -80.33293 2297 ft 180 kts 167°
2026-04-26 22:36 26.08408 -80.32536 1913 ft 178 kts 124°
2026-04-26 22:36 26.07978 -80.31310 1774 ft 161 kts 108°
2026-04-26 22:36 26.07780 -80.30106 1772 ft 161 kts 91°
2026-04-26 22:36 26.07779 -80.28849 1945 ft 166 kts 92°
2026-04-26 22:37 26.07760 -80.27509 1830 ft 176 kts 92°
2026-04-26 22:37 26.07750 -80.26195 1637 ft 168 kts 92°
2026-04-26 22:37 26.07742 -80.24918 1424 ft 162 kts 92°
2026-04-26 22:37 26.07735 -80.23669 1231 ft 159 kts 92°
2026-04-26 22:38 26.07729 -80.22439 1041 ft 158 kts 92°
2026-04-26 22:38 26.07741 -80.21220 869 ft 157 kts 92°
2026-04-26 22:38 26.07745 -80.20007 663 ft 156 kts 94°
2026-04-26 22:38 26.07726 -80.18826 470 ft 154 kts 95°
2026-04-26 22:39 26.07712 -80.17646 273 ft 150 kts 95°
2026-04-26 22:39 26.07704 -80.16479 77 ft 148 kts 96°
2026-04-26 22:39 26.07684 -80.15423 15 ft 112 kts 92°
2026-04-26 22:39 26.07686 -80.14843 15 ft 46 kts 85°
2026-04-26 22:40 26.07734 -80.14612 15 ft 19 kts 57°
2026-04-26 22:40 26.07804 -80.14628 15 ft 12 kts 284°
2026-04-26 22:40 26.07809 -80.14721 15 ft 11 kts 270°
2026-04-26 22:40 26.07808 -80.14807 15 ft 11 kts 270°
2026-04-26 22:41 26.07809 -80.14895 15 ft 10 kts 270°
2026-04-26 22:41 26.07810 -80.14975 15 ft 9 kts 270°
2026-04-26 22:41 26.07810 -80.15053 15 ft 13 kts 270°
2026-04-26 22:41 26.07810 -80.15185 15 ft 17 kts 270°
2026-04-26 22:42 26.07812 -80.15313 15 ft 13 kts 270°
2026-04-26 22:42 26.07824 -80.15366 15 ft 6 kts 324°
2026-04-26 22:42 26.07886 -80.15375 15 ft 10 kts 358°
2026-04-26 22:42 26.07937 -80.15402 15 ft 7 kts 297°
2026-04-26 22:43 26.07942 -80.15456 15 ft 6 kts 271°
2026-04-26 22:43 26.07939 -80.15492 15 ft 2 kts 241°
2026-04-26 22:43 26.07915 -80.15500 15 ft 6 kts 183°
2026-04-26 22:43 26.07893 -80.15501 15 ft 0 kts 181°
2026-04-26 22:44 26.07892 -80.15501 15 ft 0 kts 181°